Hourly Weather Holoskiv

Today, 11 April, Sunday

Time Temperature Precipitation Wind Pressure Humidity
00:00 +4°C° 0 mm 3 mps 743 mmHg 62%
01:00 +3°C° 0 mm 3 mps 743 mmHg 63%
02:00 +3°C° 0 mm 3 mps 743 mmHg 65%
03:00 +3°C° 0 mm 3 mps 743 mmHg 65%
04:00 +2°C° 0 mm 3 mps 743 mmHg 66%
05:00 +2°C° 0 mm 3 mps 744 mmHg 67%
06:00 +4°C° 0 mm 3 mps 744 mmHg 63%
07:00 +5°C° 0 mm 4 mps 744 mmHg 60%
08:00 +6°C° 0 mm 4 mps 744 mmHg 56%
09:00 +8°C° 0 mm 5 mps 744 mmHg 51%
10:00 +9°C° 0 mm 5 mps 744 mmHg 46%
11:00 +11°C° 0 mm 6 mps 745 mmHg 41%
12:00 +13°C° 0 mm 5 mps 744 mmHg 39%
13:00 +13°C° 0 mm 5 mps 744 mmHg 37%
14:00 +14°C° 0 mm 5 mps 744 mmHg 35%
15:00 +13°C° 0 mm 5 mps 744 mmHg 37%
16:00 +13°C° 0 mm 4 mps 744 mmHg 38%
17:00 +13°C° 0 mm 4 mps 743 mmHg 39%
18:00 +11°C° 0 mm 4 mps 744 mmHg 45%
19:00 +8°C° 0 mm 4 mps 744 mmHg 51%
20:00 +8°C° 0 mm 3 mps 744 mmHg 56%
21:00 +7°C° 0 mm 3 mps 744 mmHg 58%
22:00 +5°C° 0 mm 3 mps 744 mmHg 59%
23:00 +5°C° 0 mm 3 mps 744 mmHg 61%

Tomorrow, 12 April, Monday

Time Temperature Precipitation Wind Pressure Humidity
00:00 +5°C° 0 mm 3 mps 744 mmHg 62%
01:00 +4°C° 0 mm 3 mps 744 mmHg 63%
02:00 +4°C° 0 mm 3 mps 744 mmHg 64%
03:00 +4°C° 0 mm 3 mps 743 mmHg 65%
04:00 +3°C° 0 mm 3 mps 743 mmHg 66%
05:00 +3°C° 0 mm 3 mps 743 mmHg 66%
06:00 +4°C° 0 mm 3 mps 743 mmHg 63%
07:00 +7°C° 0 mm 3 mps 743 mmHg 59%
08:00 +8°C° 0 mm 3 mps 743 mmHg 55%
09:00 +10°C° 0 mm 3 mps 743 mmHg 50%
10:00 +12°C° 0 mm 3 mps 742 mmHg 45%
11:00 +13°C° 0 mm 3 mps 742 mmHg 40%
12:00 +14°C° 0 mm 3 mps 742 mmHg 38%
13:00 +16°C° 0 mm 2 mps 741 mmHg 36%
14:00 +17°C° 0 mm 2 mps 741 mmHg 35%
15:00 +17°C° 0 mm 2 mps 741 mmHg 36%
16:00 +17°C° 0 mm 2 mps 740 mmHg 36%
17:00 +17°C° 0 mm 2 mps 740 mmHg 37%
18:00 +15°C° 0 mm 2 mps 740 mmHg 43%
19:00 +13°C° 0 mm 2 mps 740 mmHg 48%
20:00 +12°C° 0 mm 2 mps 741 mmHg 54%
21:00 +10°C° 0 mm 2 mps 740 mmHg 56%
22:00 +9°C° 0 mm 2 mps 740 mmHg 59%
23:00 +9°C° 0 mm 2 mps 740 mmHg 61%

Day after tomorrow, 13 April, Tuesday

Time Temperature Precipitation Wind Pressure Humidity
00:00 +8°C° 0 mm 2 mps 740 mmHg 63%
01:00 +9°C° 0 mm 1 mps 740 mmHg 65%
02:00 +8°C° 0 mm 1 mps 740 mmHg 67%
03:00 +8°C° 0 mm 1 mps 739 mmHg 67%
04:00 +8°C° 0 mm 1 mps 739 mmHg 67%
05:00 +8°C° 0 mm 1 mps 739 mmHg 68%
06:00 +9°C° 0 mm 1 mps 739 mmHg 64%
07:00 +11°C° 0 mm 1 mps 739 mmHg 61%
08:00 +12°C° 0 mm 1 mps 739 mmHg 57%
09:00 +13°C° 0 mm 1 mps 739 mmHg 53%
10:00 +15°C° 0 mm 1 mps 739 mmHg 48%
11:00 +16°C° 0 mm 1 mps 739 mmHg 43%
12:00 +17°C° 0 mm 2 mps 738 mmHg 44%
13:00 +17°C° 0 mm 2 mps 738 mmHg 44%
14:00 +18°C° 0 mm 2 mps 738 mmHg 44%
15:00 +17°C° 0 mm 2 mps 738 mmHg 49%
16:00 +17°C° 0 mm 3 mps 737 mmHg 53%
17:00 +16°C° 0 mm 3 mps 737 mmHg 58%
18:00 +14°C° 0.1 mm 3 mps 737 mmHg 67%
19:00 +13°C° 0.1 mm 3 mps 737 mmHg 76%
20:00 +12°C° 0.1 mm 3 mps 737 mmHg 86%
21:00 +11°C° 0.4 mm 3 mps 737 mmHg 89%
22:00 +11°C° 0.4 mm 3 mps 736 mmHg 92%
23:00 +12°C° 0.4 mm 2 mps 736 mmHg 94%

14 April, Wednesday

Time Temperature Precipitation Wind Pressure Humidity
00:00 +10°C° 0.7 mm 2 mps 736 mmHg 95%
01:00 +10°C° 0.7 mm 2 mps 736 mmHg 95%
02:00 +10°C° 0.7 mm 2 mps 735 mmHg 96%
03:00 +10°C° 0.7 mm 3 mps 735 mmHg 95%
04:00 +10°C° 0.7 mm 3 mps 735 mmHg 95%
05:00 +9°C° 0.7 mm 3 mps 735 mmHg 94%
06:00 +8°C° 0.3 mm 4 mps 735 mmHg 93%
07:00 +8°C° 0.3 mm 4 mps 735 mmHg 92%
08:00 +8°C° 0.3 mm 4 mps 735 mmHg 90%
09:00 +10°C° 0 mm 4 mps 735 mmHg 86%
10:00 +10°C° 0 mm 4 mps 735 mmHg 82%
11:00 +11°C° 0 mm 4 mps 735 mmHg 78%
12:00 +10°C° 0.1 mm 5 mps 735 mmHg 80%
13:00 +9°C° 0.1 mm 5 mps 735 mmHg 82%
14:00 +9°C° 0.1 mm 5 mps 735 mmHg 83%
15:00 +10°C° 0.1 mm 4 mps 735 mmHg 86%
16:00 +8°C° 0.1 mm 4 mps 735 mmHg 88%
17:00 +8°C° 0.1 mm 4 mps 734 mmHg 90%
18:00 +8°C° 0.2 mm 3 mps 735 mmHg 91%
19:00 +8°C° 0.2 mm 3 mps 735 mmHg 92%
20:00 +8°C° 0.2 mm 3 mps 735 mmHg 93%
21:00 +8°C° 0.4 mm 2 mps 735 mmHg 93%
22:00 +8°C° 0.4 mm 2 mps 735 mmHg 94%
23:00 +8°C° 0.4 mm 1 mps 735 mmHg 94%

15 April, Thursday

Time Temperature Precipitation Wind Pressure Humidity
00:00 +8°C° 0.1 mm 1 mps 735 mmHg 94%
01:00 +8°C° 0.1 mm 1 mps 735 mmHg 94%
02:00 +7°C° 0.1 mm 2 mps 735 mmHg 94%
03:00 +7°C° 0 mm 2 mps 735 mmHg 94%
04:00 +7°C° 0 mm 2 mps 735 mmHg 93%
05:00 +7°C° 0 mm 2 mps 735 mmHg 93%
06:00 +8°C° 0.2 mm 1 mps 735 mmHg 93%
07:00 +8°C° 0.2 mm 1 mps 735 mmHg 93%
08:00 +8°C° 0.2 mm 1 mps 735 mmHg 93%
09:00 +8°C° 0.4 mm 1 mps 735 mmHg 92%
10:00 +8°C° 0.4 mm 1 mps 735 mmHg 91%
11:00 +8°C° 0.4 mm 1 mps 735 mmHg 90%
12:00 +9°C° 0.1 mm 1 mps 735 mmHg 89%
13:00 +8°C° 0.1 mm 2 mps 735 mmHg 89%
14:00 +8°C° 0.1 mm 2 mps 735 mmHg 88%
15:00 +9°C° 0 mm 2 mps 735 mmHg 86%
16:00 +9°C° 0 mm 2 mps 735 mmHg 84%
17:00 +10°C° 0 mm 2 mps 735 mmHg 82%
18:00 +9°C° 0 mm 3 mps 735 mmHg 85%
19:00 +9°C° 0 mm 3 mps 735 mmHg 87%
20:00 +8°C° 0 mm 3 mps 735 mmHg 90%
21:00 +7°C° 0.1 mm 4 mps 735 mmHg 91%
22:00 +7°C° 0.1 mm 4 mps 735 mmHg 92%
23:00 +7°C° 0.1 mm 5 mps 734 mmHg 93%

16 April, Friday

Time Temperature Precipitation Wind Pressure Humidity
00:00 +7°C° 0 mm 5 mps 734 mmHg 93%
01:00 +7°C° 0 mm 5 mps 734 mmHg 93%
02:00 +7°C° 0 mm 5 mps 734 mmHg 93%
03:00 +7°C° 0 mm 5 mps 734 mmHg 94%
04:00 +7°C° 0 mm 5 mps 734 mmHg 95%
05:00 +6°C° 0 mm 5 mps 734 mmHg 95%
06:00 +7°C° 0.1 mm 5 mps 735 mmHg 95%
07:00 +7°C° 0.1 mm 6 mps 735 mmHg 94%
08:00 +7°C° 0.1 mm 6 mps 735 mmHg 93%
09:00 +8°C° 0 mm 6 mps 736 mmHg 90%
10:00 +8°C° 0 mm 6 mps 736 mmHg 86%
11:00 +9°C° 0 mm 6 mps 736 mmHg 83%
12:00 +9°C° 0.1 mm 6 mps 736 mmHg 83%
13:00 +10°C° 0.1 mm 7 mps 736 mmHg 83%
14:00 +10°C° 0.1 mm 7 mps 737 mmHg 82%
15:00 +9°C° 0 mm 7 mps 737 mmHg 84%
16:00 +8°C° 0 mm 7 mps 737 mmHg 85%
17:00 +8°C° 0 mm 6 mps 738 mmHg 86%
18:00 +7°C° 0.2 mm 6 mps 738 mmHg 88%
19:00 +7°C° 0.2 mm 6 mps 739 mmHg 90%
20:00 +5°C° 0.2 mm 6 mps 739 mmHg 91%
21:00 +5°C° 0 mm 6 mps 739 mmHg 91%
22:00 +5°C° 0 mm 6 mps 740 mmHg 90%
23:00 +5°C° 0 mm 6 mps 740 mmHg 90%
Show more